Weather History for New Philadelphia, OH

Change the Weather History Date:

Saturday, February 16, 2013

  Actual Average Record
Temperature  
Mean Temperature 26 °F 32 °F  
Max Temperature 31 °F 41 °F 65 °F (2005)
Min Temperature 20 °F 22 °F -8 °F (1963)
Degree Days  
Heating Degree Days 39 33  
Month to date heating degree days 578 551  
Since 1 July heating degree days 3723 3823  
Cooling Degree Days 0 0  
Month to date cooling degree days 0 0  
Year to date cooling degree days 0 0  
Moisture  
Dew Point 15 °F    
Average Humidity 60    
Maximum Humidity 77    
Minimum Humidity 42    
Precipitation  
Precipitation T in 0.08 in 1.06 in (1990)
Month to date precipitation 0.35 1.31  
Year to date precipitation 1.85 3.91  
Sea Level Pressure  
Sea Level Pressure 30.02 in    
Wind  
Wind Speed 5 mph (WNW)    
Max Wind Speed 16 mph    
Max Gust Speed 21 mph    
Visibility 7 miles    
Events Snow    
T = Trace of Precipitation, MM = Missing Value Source: NWS Daily Summary

Daily Weather History Graph

Daily Weather History Graph

Search for Another Location

Airport:

Trip Planner

Search our weather history database for the weather conditions in past years. The results will help you decide how hot, cold, wet, or windy it might be!

Date:

Astronomy

Feb. 16, 2013 Rise Set
Actual Time 7:17 AM EST 6:02 PM EST
Civil Twilight 6:49 AM EST 6:30 PM EST
Nautical Twilight 6:17 AM EST 7:02 PM EST
Astronomical Twilight 5:46 AM EST 7:33 PM EST
Moon 10:28 AM EST (2/16) 12:02 AM EST (2/16)
Length of Visible Light 11h 40m
Length of Day
10h 44m
Waxing Crescent, 39% of the Moon is Illuminated
Feb 16
Waxing Crescent
Feb 17
First Quarter
Feb 25
Full
Mar 4
Last Quarter
Mar 11
New

Hourly Weather History & Observations

Time (EST) Temp. Windchill Dew Point Humidity Pressure Visibility Wind Dir Wind Speed Gust Speed Precip Events Conditions
12:53 AM 27.0 °F 23.0 °F 19.9 °F 75% 30.11 in 10.0 mi WNW 3.5 mph - N/A   Overcast
1:53 AM 27.0 °F 23.0 °F 19.9 °F 75% 30.10 in 10.0 mi NW 3.5 mph - N/A   Overcast
2:53 AM 28.0 °F 20.0 °F 15.1 °F 58% 30.09 in 10.0 mi WNW 8.1 mph - N/A   Overcast
3:53 AM 27.0 °F 20.5 °F 14.0 °F 58% 30.08 in 10.0 mi WNW 5.8 mph - N/A   Overcast
4:53 AM 27.0 °F 21.6 °F 14.0 °F 58% 30.06 in 10.0 mi NW 4.6 mph - N/A   Overcast
5:53 AM 26.1 °F 21.9 °F 15.1 °F 63% 30.07 in 10.0 mi WNW 3.5 mph - N/A   Mostly Cloudy
6:34 AM 24.8 °F - 14.0 °F 64% 30.04 in 10.0 mi Calm Calm - N/A   Mostly Cloudy
6:45 AM 24.8 °F - 14.0 °F 64% 30.03 in 10.0 mi Calm Calm - N/A   Scattered Clouds
6:53 AM 24.1 °F - 14.0 °F 65% 30.06 in 10.0 mi Calm Calm - N/A   Partly Cloudy
7:53 AM 21.0 °F - 15.1 °F 78% 30.08 in 10.0 mi Calm Calm - N/A   Clear
8:53 AM 26.1 °F - 16.0 °F 66% 30.08 in 10.0 mi Calm Calm - N/A   Clear
9:53 AM 27.0 °F 23.0 °F 14.0 °F 58% 30.07 in 10.0 mi Variable 3.5 mph - N/A   Clear
10:53 AM 28.0 °F 24.2 °F 10.0 °F 47% 30.06 in 10.0 mi Variable 3.5 mph - N/A   Overcast
11:53 AM 28.0 °F 22.8 °F 8.1 °F 43% 30.05 in 10.0 mi West 4.6 mph - N/A   Overcast
12:53 PM 28.9 °F - 8.1 °F 41% 30.02 in 10.0 mi Calm Calm - N/A   Mostly Cloudy
1:53 PM 28.9 °F 22.8 °F 8.1 °F 41% 30.00 in 10.0 mi West 5.8 mph - N/A   Overcast
2:53 PM 28.9 °F 22.8 °F 10.0 °F 45% 30.00 in 10.0 mi West 5.8 mph - N/A   Overcast
3:53 PM 28.9 °F 21.1 °F 10.0 °F 45% 29.99 in 10.0 mi SW 8.1 mph - N/A   Overcast
4:53 PM 28.9 °F 25.2 °F 10.9 °F 47% 29.99 in 10.0 mi SSW 3.5 mph - N/A   Partly Cloudy
5:53 PM 28.0 °F 22.8 °F 14.0 °F 56% 30.00 in 7.0 mi WSW 4.6 mph - 0.00 in Snow Light Snow
6:32 PM 26.6 °F 18.2 °F 19.4 °F 74% 29.98 in 1.8 mi WNW 8.1 mph - 0.00 in Snow Light Snow
6:39 PM 24.8 °F 14.6 °F 19.4 °F 80% 29.98 in 1.2 mi West 10.4 mph 17.3 mph 0.00 in Snow Light Snow
6:44 PM 24.8 °F 16.9 °F 17.6 °F 74% 29.98 in 3.0 mi West 6.9 mph - 0.00 in Snow Light Snow
6:48 PM 24.8 °F 15.3 °F 19.4 °F 80% 29.98 in 2.0 mi WNW 9.2 mph - 0.00 in Snow Light Snow
6:53 PM 25.0 °F 15.5 °F 19.9 °F 81% 30.02 in 1.0 mi WNW 9.2 mph - 0.00 in Snow Light Snow
7:09 PM 24.8 °F 16.9 °F 21.2 °F 86% 29.98 in 1.2 mi WNW 6.9 mph - 0.00 in Snow Light Snow
7:21 PM 24.8 °F 14.6 °F 19.4 °F 80% 29.98 in 2.5 mi WNW 10.4 mph 17.3 mph 0.00 in Snow Light Snow
7:28 PM 24.8 °F 17.9 °F 19.4 °F 80% 29.98 in 7.0 mi WNW 5.8 mph - 0.00 in Snow Light Snow
7:35 PM 24.8 °F 16.9 °F 17.6 °F 74% 29.98 in 8.0 mi NW 6.9 mph - 0.00 in   Overcast
7:53 PM 24.1 °F 15.2 °F 17.1 °F 75% 30.02 in 10.0 mi NW 8.1 mph - 0.00 in   Overcast
8:53 PM 24.1 °F 13.1 °F 15.1 °F 69% 30.02 in 8.0 mi WNW 11.5 mph 19.6 mph 0.00 in   Overcast
9:53 PM 23.0 °F 11.7 °F 15.1 °F 72% 30.02 in 10.0 mi WNW 11.5 mph - 0.00 in   Overcast
10:53 PM 21.9 °F 11.7 °F 15.1 °F 75% 30.02 in 7.0 mi WNW 9.2 mph - N/A   Overcast
11:13 PM 21.2 °F 10.9 °F 15.8 °F 80% 29.98 in 2.5 mi WNW 9.2 mph - 0.00 in Snow Light Snow
11:24 PM 21.2 °F 11.7 °F 15.8 °F 80% 29.98 in 1.5 mi West 8.1 mph - 0.00 in Snow Light Snow
11:36 PM 21.2 °F 10.1 °F 15.8 °F 80% 29.98 in 3.0 mi NW 10.4 mph - 0.00 in Snow Light Snow
11:48 PM 21.2 °F 12.6 °F 15.8 °F 80% 29.98 in 2.0 mi West 6.9 mph - 0.00 in Snow Light Snow
11:53 PM 21.0 °F 9.3 °F 15.1 °F 78% 30.02 in 2.5 mi NW 11.5 mph 18.4 mph 0.00 in Snow Light Snow